{"data":{"norad_id":59749,"epoch":"2026-05-24T23:21:52.807968Z","epoch_age_seconds":74462,"freshness":"FRESH","line1":"1 59749U 24090V   26144.97352787 -.00001470  00000+0 -43884-4 0  9998","line2":"2 59749  43.0028 112.9476 0001663 273.3032  86.7630 15.27586291115091","mean_motion":15.27586291,"eccentricity":0.0001663,"inclination_deg":43.0028,"raan_deg":112.9476,"arg_perigee_deg":273.3032,"mean_anomaly_deg":86.763,"bstar":-4.3884e-5,"rev_number":11509,"period_min":94.266360498518,"perigee_km":481.88924647202,"apogee_km":484.17127070223,"semimajor_km":6861.1672585871,"source":"CELESTRAK","updated_at":"2026-05-25T13:38:19.054645Z"}}